Home   Weather   Salalah   Past weeks

Flag for Oman Past Weather in Salalah, Oman — Yesterday and Last 2 Weeks

Now
84 °F

Partly sunny.


Feels Like: 94 °F
Forecast: 76 / 84 °F
Wind: 12 mph from Southwest

Location: Salalah Airport

Current Time: Sep 27, 2016 at 11:13:05 AM

Latest Report: Sep 27, 2016 at 9:50 AM


Visibility: N/A

Pressure: 29.86 "Hg

Humidity: 79%

Dew Point: 77 °F

Location of SalalahLocation

Past Weather in Salalah — Graph

°F

Salalah Temperature Yesterday

Maximum temperature yesterday: 86 °F (at 1:50 PM)
Minimum temperature yesterday: 79 °F (at 5:50 AM)
Average temperature yesterday: 81 °F

High & Low Weather Summary for the Past Weeks

 TemperatureHumidityPressure
High86 °F (Sep 12, 12:50 PM)94% (Sep 14, 2:50 AM)29.86 "Hg (Sep 14, 2:50 AM)
Low77 °F (Sep 16, 4:50 AM)66% (Sep 12, 12:50 PM)29.65 "Hg (Sep 24, 2:50 PM)
Average81 °F82%29.75 "Hg
* Reported Sep 12 9:50 AM — Sep 27 9:50 AM, Salalah, Weather by CustomWeather, © 2016

Note: Actual official high and low records may vary slightly from our data, if they occured in-between our weather recording intervals... More about our weather records

Advertising

Salalah Weather History for the Previous 24 Hours

Scroll right to see more
 ConditionsComfort  
Time TempWeatherWind HumidityBarometerVisibility
9:50 AM
Tue, Sep 27
84 °FPartly sunny.12 mph79%29.86 "HgN/A
8:50 AM82 °FPartly sunny.7 mph84%29.86 "HgN/A
7:50 AM81 °FPartly sunny.6 mph89%29.83 "HgN/A
6:50 AM79 °FPartly sunny.3 mph89%29.80 "HgN/A
5:50 AM79 °FPassing clouds.3 mph89%29.80 "HgN/A
4:50 AM81 °FPassing clouds.5 mph84%29.80 "HgN/A
3:50 AM81 °FPassing clouds.7 mph84%29.77 "HgN/A
2:50 AM81 °FPassing clouds.7 mph84%29.77 "HgN/A
1:50 AM81 °FPassing clouds.6 mph84%29.77 "HgN/A
12:50 AM81 °FPassing clouds.8 mph84%29.77 "HgN/A
11:50 PM
Mon, Sep 26
81 °FPassing clouds.6 mph84%29.80 "HgN/A
10:50 PM81 °FPassing clouds.9 mph89%29.80 "HgN/A
9:50 PM81 °FPassing clouds.8 mph89%29.83 "HgN/A
8:50 PM81 °FPassing clouds.8 mph89%29.80 "HgN/A
7:50 PM81 °FPartly cloudy.8 mph89%29.77 "Hg6 mi
6:50 PM81 °FPassing clouds.9 mph89%29.77 "HgN/A
5:50 PM82 °FOvercast.5 mph84%29.74 "Hg6 mi
4:50 PM82 °FOvercast.6 mph84%29.74 "HgN/A
3:50 PM84 °FOvercast.9 mph74%29.71 "HgN/A
2:50 PM84 °FPassing clouds.12 mph74%29.71 "HgN/A
1:50 PM86 °FPassing clouds.12 mph70%29.71 "HgN/A
12:50 PM84 °FPassing clouds.10 mph74%29.74 "HgN/A
Weather by CustomWeather, © 2016

See weather overviewHow to use our weather pages